Back to catalog

STARLINK-31013

AliveCommunicationsVLEO
NORAD 58526·PAYLOAD·🇺🇸 United States

Launched Dec 7, 2023 from Cape Canaveral Space Force Station

Loading…

Next Passes (next 24 hours)

TLE

FreshSource: CelesTrak SupGP

Epoch: Sep 15, 2026, 01:46 UTC

1 58526C 23191U   26258.07409722  .00045055  00000+0  24983-2 0  2580
2 58526  42.9979 144.8288 0010926 188.7012 120.0488 15.12936833    13

Track STARLINK-31013 in real time with AllMySat

Download on the App Store